Location: Tamazert
(32.6352°N, 5.2072°W)
Time: 16:17:51
(UTC+00:00)

Cosmos 1709 Rocket - Pass Details

Date: 22 May 2022
Orbit: 947 x 1002 km, 82.9° (Epoch: 28 June)

Event Time Altitude Azimuth Distance (km) Brightness Sun altitude
Rises 01:36:35 0° 358° (N) 3,638 7.9 -33.7°
Reaches altitude 10° 01:39:07 10° 1° (N) 2,683 7.0 -33.5°
Enters shadow 01:44:34 60° 52° (NE) 1,077 4.3 -33.1°
